San Antonio Stinson, TX

7:38 AM CDT on September 25, 2017 (GMT -0500)
Stinson Municipal

Weather History for KSSF - January, 2014

Change the Weather History Date:

Sunday, January 19, 2014

  Actual Average Record
Temperature  
Mean Temperature 57 °F -  
Max Temperature 73 °F 62 °F 84 °F (2000)
Min Temperature 41 °F 41 °F 28 °F (2003)
Degree Days  
Heating Degree Days 8    
Growing Degree Days 7 (Base 50)    
Moisture  
Dew Point 31 °F    
Average Humidity 48    
Maximum Humidity 82    
Minimum Humidity 15    
Precipitation  
Precipitation 0.00 in - - ()
Sea Level Pressure  
Sea Level Pressure 30.21 in    
Wind  
Wind Speed 3 mph (NE)    
Max Wind Speed 9 mph    
Max Gust Speed -    
Visibility 9 miles    
Events      
Averages and records for this station are not official NWS values.
T = Trace of Precipitation, MM = Missing Value Source: NWS Daily Summary

Daily Weather History Graph

Daily Weather History Graph

Search for Another Location

Airport or City:

Trip Planner

Search our weather history database for the weather conditions in past years. The results will help you decide how hot, cold, wet, or windy it might be!

Date:

Astronomy

Jan. 19, 2014 Rise Set
Actual Time 7:28 AM CST 6:01 PM CST
Civil Twilight 7:02 AM CST 6:26 PM CST
Nautical Twilight 6:33 AM CST 6:55 PM CST
Astronomical Twilight 6:05 AM CST 7:24 PM CST
Moon 9:20 PM CST (1/19) 9:17 AM CST (1/19)
Length of Visible Light 11h 23m
Length of Day
10h 32m
Waning Gibbous, 89% of the Moon is Illuminated
Jan 19
Waning Gibbous
Jan 23
Last Quarter
Jan 30
New
Feb 6
First Quarter
Feb 14
Full

Hourly Weather History & Observations

Time (CST) Temp. Windchill Dew Point Humidity Pressure Visibility Wind Dir Wind Speed Gust Speed Precip Events Conditions
12:53 AM 45.0 °F - 39.9 °F 82% 30.18 in 8.0 mi Calm Calm - N/A   Clear
1:53 AM 45.0 °F 41.8 °F 39.0 °F 80% 30.18 in 6.0 mi West 5.8 mph - N/A   Haze
2:53 AM 43.0 °F 41.3 °F 37.9 °F 82% 30.19 in 6.0 mi WNW 3.5 mph - N/A   Haze
3:53 AM 44.1 °F 42.5 °F 39.0 °F 82% 30.20 in 7.0 mi NNW 3.5 mph - N/A   Clear
4:53 AM 45.0 °F 41.2 °F 39.9 °F 82% 30.22 in 9.0 mi North 6.9 mph - N/A   Clear
5:53 AM 44.1 °F - 39.0 °F 82% 30.24 in 10.0 mi Calm Calm - N/A   Clear
6:53 AM 41.0 °F - 36.0 °F 82% 30.26 in 10.0 mi Calm Calm - N/A   Clear
7:53 AM 43.0 °F 41.3 °F 36.0 °F 76% 30.29 in 10.0 mi NNW 3.5 mph - N/A   Clear
8:53 AM 54.0 °F - 34.0 °F 47% 30.31 in 10.0 mi NNE 9.2 mph - N/A   Clear
9:53 AM 59.0 °F - 27.0 °F 29% 30.33 in 10.0 mi ENE 9.2 mph - N/A   Clear
10:53 AM 63.0 °F - 26.1 °F 25% 30.32 in 10.0 mi ENE 9.2 mph - N/A   Clear
11:53 AM 66.0 °F - 27.0 °F 23% 30.30 in 10.0 mi ENE 6.9 mph - N/A   Clear
12:53 PM 68.0 °F - 26.1 °F 21% 30.24 in 10.0 mi ENE 4.6 mph - N/A   Clear
1:53 PM 71.1 °F - 23.0 °F 16% 30.20 in 10.0 mi Calm Calm - N/A   Clear
2:53 PM 72.0 °F - 21.9 °F 15% 30.18 in 9.0 mi Calm Calm - N/A   Clear
3:53 PM 73.0 °F - 21.9 °F 15% 30.16 in 10.0 mi SSE 5.8 mph - N/A   Clear
4:53 PM 73.0 °F - 24.1 °F 16% 30.15 in 10.0 mi SSE 3.5 mph - N/A   Clear
5:53 PM 69.1 °F - 25.0 °F 19% 30.15 in 10.0 mi South 4.6 mph - N/A   Clear
6:53 PM 59.0 °F - 28.0 °F 31% 30.16 in 10.0 mi South 3.5 mph - N/A   Clear
7:53 PM 55.0 °F - 28.9 °F 37% 30.15 in 10.0 mi Calm Calm - N/A   Clear
8:53 PM 51.1 °F - 28.9 °F 43% 30.14 in 10.0 mi Calm Calm - N/A   Clear
9:53 PM 50.0 °F - 30.9 °F 48% 30.13 in 8.0 mi Calm Calm - N/A   Clear
10:53 PM 45.0 °F - 30.0 °F 56% 30.13 in 8.0 mi Calm Calm - N/A   Clear
11:53 PM 48.0 °F - 30.9 °F 52% 30.12 in 10.0 mi Calm Calm - N/A   Clear